When you browse on this site, cookies collect data to enhance your experience and personalize the content and advertising you see.
Visit our Privacy Policy to learn more. By continuing to use the site, you agree to this use of cookies and data.
  • In United Kingdom
  • List of Countries
  • For 7 days
  • Water Temperature
  • Satellite Maps
  • Weather Map
  • Weather Widgets
  • user-avatar
    Login

    Hourly Weather Salzburg

    Today, 18 June, Tuesday

    Time Temperature Precipitation Wind Pressure Humidity
    00:00 +10°C° 0 mm 1 mps 628 mmHg 93%
    01:00 +8°C° 0 mm 2 mps 628 mmHg 93%
    02:00 +9°C° 0 mm 1 mps 628 mmHg 92%
    03:00 +9°C° 0 mm 1 mps 627 mmHg 92%
    04:00 +8°C° 0 mm 1 mps 627 mmHg 92%
    05:00 +10°C° 0 mm 1 mps 628 mmHg 88%
    06:00 +12°C° 0 mm 1 mps 629 mmHg 85%
    07:00 +13°C° 0 mm 0 mps 629 mmHg 81%
    08:00 +15°C° 0 mm 0 mps 630 mmHg 70%
    09:00 +20°C° 0 mm 1 mps 631 mmHg 60%
    10:00 +22°C° 0 mm 1 mps 631 mmHg 49%
    11:00 +23°C° 0.1 mm 1 mps 631 mmHg 45%
    12:00 +23°C° 0.1 mm 1 mps 631 mmHg 42%
    13:00 +24°C° 0.1 mm 1 mps 631 mmHg 38%
    14:00 +23°C° 0.2 mm 2 mps 631 mmHg 43%
    15:00 +21°C° 0.2 mm 2 mps 630 mmHg 47%
    16:00 +20°C° 0.2 mm 2 mps 630 mmHg 52%
    17:00 +20°C° 0.4 mm 1 mps 629 mmHg 64%
    18:00 +18°C° 0.4 mm 1 mps 629 mmHg 76%
    19:00 +15°C° 0.4 mm 1 mps 628 mmHg 87%
    20:00 +14°C° 0.1 mm 1 mps 628 mmHg 88%
    21:00 +12°C° 0.1 mm 1 mps 627 mmHg 89%
    22:00 +11°C° 0.1 mm 1 mps 627 mmHg 90%
    23:00 +11°C° 0 mm 1 mps 627 mmHg 90%

    Tomorrow, 19 June, Wednesday

    Time Temperature Precipitation Wind Pressure Humidity
    00:00 +10°C° 0 mm 1 mps 627 mmHg 91%
    01:00 +10°C° 0 mm 1 mps 627 mmHg 91%
    02:00 +10°C° 0 mm 1 mps 626 mmHg 90%
    03:00 +10°C° 0 mm 1 mps 626 mmHg 90%
    04:00 +10°C° 0 mm 1 mps 626 mmHg 90%
    05:00 +12°C° 0 mm 1 mps 627 mmHg 88%
    06:00 +12°C° 0 mm 0 mps 627 mmHg 85%
    07:00 +13°C° 0 mm 0 mps 628 mmHg 83%
    08:00 +15°C° 0.3 mm 0 mps 628 mmHg 76%
    09:00 +17°C° 0.3 mm 0 mps 628 mmHg 69%
    10:00 +18°C° 0.3 mm 0 mps 629 mmHg 61%
    11:00 +20°C° 0.3 mm 1 mps 629 mmHg 57%
    12:00 +21°C° 0.3 mm 1 mps 629 mmHg 52%
    13:00 +21°C° 0.3 mm 1 mps 629 mmHg 48%
    14:00 +20°C° 0.3 mm 1 mps 628 mmHg 56%
    15:00 +18°C° 0.3 mm 1 mps 627 mmHg 64%
    16:00 +16°C° 0.3 mm 1 mps 627 mmHg 72%
    17:00 +15°C° 0.1 mm 1 mps 627 mmHg 76%
    18:00 +14°C° 0.1 mm 1 mps 627 mmHg 80%
    19:00 +14°C° 0.1 mm 1 mps 626 mmHg 84%
    20:00 +12°C° 0 mm 1 mps 626 mmHg 85%
    21:00 +11°C° 0 mm 1 mps 626 mmHg 85%
    22:00 +10°C° 0 mm 1 mps 626 mmHg 85%
    23:00 +10°C° 0 mm 1 mps 626 mmHg 84%

    Day after tomorrow, 20 June, Thursday

    Time Temperature Precipitation Wind Pressure Humidity
    00:00 +10°C° 0 mm 1 mps 626 mmHg 82%
    01:00 +10°C° 0 mm 1 mps 625 mmHg 81%
    02:00 +9°C° 0 mm 1 mps 625 mmHg 81%
    03:00 +9°C° 0 mm 1 mps 625 mmHg 80%
    04:00 +9°C° 0 mm 1 mps 625 mmHg 80%
    05:00 +11°C° 0 mm 1 mps 626 mmHg 75%
    06:00 +12°C° 0 mm 0 mps 627 mmHg 70%
    07:00 +14°C° 0 mm 0 mps 627 mmHg 65%
    08:00 +17°C° 0 mm 0 mps 628 mmHg 57%
    09:00 +21°C° 0 mm 1 mps 629 mmHg 50%
    10:00 +23°C° 0 mm 1 mps 629 mmHg 42%
    11:00 +24°C° 0 mm 1 mps 629 mmHg 39%
    12:00 +24°C° 0 mm 1 mps 629 mmHg 37%
    13:00 +25°C° 0 mm 1 mps 629 mmHg 35%
    14:00 +24°C° 0 mm 1 mps 628 mmHg 40%
    15:00 +23°C° 0 mm 2 mps 628 mmHg 46%
    16:00 +21°C° 0 mm 2 mps 627 mmHg 52%
    17:00 +18°C° 1.5 mm 2 mps 627 mmHg 65%
    18:00 +15°C° 1.5 mm 2 mps 626 mmHg 79%
    19:00 +11°C° 1.5 mm 3 mps 625 mmHg 92%
    20:00 +10°C° 0.4 mm 2 mps 626 mmHg 94%
    21:00 +10°C° 0.4 mm 2 mps 626 mmHg 96%
    22:00 +10°C° 0.4 mm 1 mps 626 mmHg 97%
    23:00 +10°C° 0 mm 1 mps 626 mmHg 96%

    21 June, Friday

    Time Temperature Precipitation Wind Pressure Humidity
    00:00 +9°C° 0 mm 1 mps 626 mmHg 96%
    01:00 +7°C° 0 mm 0 mps 626 mmHg 95%
    02:00 +7°C° 0 mm 0 mps 626 mmHg 95%
    03:00 +7°C° 0 mm 0 mps 626 mmHg 95%
    04:00 +7°C° 0 mm 0 mps 626 mmHg 95%
    05:00 +8°C° 0 mm 0 mps 626 mmHg 93%
    06:00 +10°C° 0 mm 0 mps 627 mmHg 91%
    07:00 +11°C° 0 mm 0 mps 628 mmHg 90%
    08:00 +12°C° 0.4 mm 0 mps 628 mmHg 86%
    09:00 +14°C° 0.4 mm 1 mps 629 mmHg 83%
    10:00 +15°C° 0.4 mm 1 mps 629 mmHg 79%
    11:00 +15°C° 1.1 mm 1 mps 629 mmHg 84%
    12:00 +14°C° 1.1 mm 2 mps 628 mmHg 89%
    13:00 +13°C° 1.1 mm 2 mps 628 mmHg 94%
    14:00 +12°C° 0.4 mm 1 mps 627 mmHg 94%
    15:00 +12°C° 0.4 mm 1 mps 627 mmHg 94%
    16:00 +11°C° 0.4 mm 0 mps 627 mmHg 94%
    17:00 +11°C° 0 mm 0 mps 627 mmHg 93%
    18:00 +11°C° 0 mm 0 mps 628 mmHg 91%
    19:00 +12°C° 0 mm 0 mps 628 mmHg 89%
    20:00 +11°C° 0 mm 0 mps 628 mmHg 91%
    21:00 +10°C° 0 mm 0 mps 628 mmHg 92%
    22:00 +9°C° 0 mm 0 mps 628 mmHg 94%
    23:00 +10°C° 0.1 mm 1 mps 628 mmHg 93%

    22 June, Saturday

    Time Temperature Precipitation Wind Pressure Humidity
    00:00 +10°C° 0.1 mm 1 mps 628 mmHg 93%
    01:00 +10°C° 0.1 mm 1 mps 628 mmHg 92%
    02:00 +9°C° 0.2 mm 1 mps 628 mmHg 92%
    03:00 +9°C° 0.2 mm 1 mps 627 mmHg 92%
    04:00 +8°C° 0.2 mm 0 mps 627 mmHg 92%
    05:00 +9°C° 0 mm 0 mps 628 mmHg 90%
    06:00 +9°C° 0 mm 0 mps 628 mmHg 88%
    07:00 +10°C° 0 mm 0 mps 629 mmHg 86%
    08:00 +11°C° 0.2 mm 0 mps 629 mmHg 87%
    09:00 +12°C° 0.2 mm 1 mps 629 mmHg 88%
    10:00 +12°C° 0.2 mm 1 mps 629 mmHg 89%
    11:00 +11°C° 0.6 mm 1 mps 629 mmHg 91%
    12:00 +10°C° 0.6 mm 0 mps 628 mmHg 93%
    13:00 +10°C° 0.6 mm 0 mps 628 mmHg 95%
    14:00 +12°C° 0.1 mm 1 mps 628 mmHg 85%
    15:00 +14°C° 0.1 mm 1 mps 629 mmHg 75%
    16:00 +16°C° 0.1 mm 1 mps 630 mmHg 65%
    17:00 +15°C° 0 mm 1 mps 629 mmHg 71%
    18:00 +14°C° 0 mm 1 mps 629 mmHg 77%
    19:00 +14°C° 0 mm 1 mps 629 mmHg 83%
    20:00 +12°C° 0.2 mm 1 mps 628 mmHg 86%
    21:00 +11°C° 0.2 mm 1 mps 628 mmHg 90%
    22:00 +10°C° 0.2 mm 1 mps 628 mmHg 94%
    23:00 +10°C° 0 mm 1 mps 628 mmHg 93%

    23 June, Sunday

    Time Temperature Precipitation Wind Pressure Humidity
    00:00 +10°C° 0 mm 1 mps 628 mmHg 93%
    01:00 +10°C° 0 mm 1 mps 628 mmHg 93%
    02:00 +9°C° 0 mm 1 mps 628 mmHg 93%
    03:00 +9°C° 0 mm 1 mps 627 mmHg 93%
    04:00 +9°C° 0 mm 1 mps 627 mmHg 92%
    05:00 +10°C° 0 mm 1 mps 628 mmHg 87%
    06:00 +11°C° 0 mm 0 mps 629 mmHg 82%
    07:00 +13°C° 0 mm 0 mps 630 mmHg 76%
    08:00 +15°C° 0 mm 0 mps 631 mmHg 67%
    09:00 +17°C° 0 mm 0 mps 632 mmHg 58%
    10:00 +21°C° 0 mm 1 mps 632 mmHg 49%
    11:00 +22°C° 0.1 mm 1 mps 632 mmHg 47%
    12:00 +23°C° 0.1 mm 1 mps 633 mmHg 45%
    13:00 +24°C° 0.1 mm 1 mps 633 mmHg 43%
    14:00 +23°C° 0.3 mm 1 mps 632 mmHg 51%
    15:00 +22°C° 0.3 mm 1 mps 632 mmHg 58%
    16:00 +19°C° 0.3 mm 2 mps 631 mmHg 66%
    17:00 +19°C° 0.5 mm 1 mps 631 mmHg 73%
    18:00 +18°C° 0.5 mm 1 mps 631 mmHg 80%
    19:00 +15°C° 0.5 mm 1 mps 630 mmHg 87%
    20:00 +14°C° 0.2 mm 1 mps 630 mmHg 88%
    21:00 +13°C° 0.2 mm 1 mps 630 mmHg 89%
    22:00 +12°C° 0.2 mm 1 mps 630 mmHg 90%
    23:00 +12°C° 0 mm 1 mps 630 mmHg 90%
    Show more